EW7772 Weather Reports


time (UTC)temp
C
wind
direction
speed
KPH
gust
KPH
rain 1hr
cm
rain 24hr
cm
rain mn
cm
humidity
%
barometer
mb
20200227121505 4 40 1.6 9.7 0.00 0.20 0.00 61 1001.9
20200227120001 5 347 0.0 4.8 0.00 0.20 0.00 60 1002.3
20200227114823 5 117 0.0 4.8 0.00 0.20 0.00 61 1002.8
20200227113218 5 345 0.0 3.2 0.00 0.20 0.00 61 1003.5
20200227111739 5 315 0.0 4.8 0.00 0.20 0.00 61 1004.1
20200227110104 5 310 0.0 6.4 0.00 0.20 0.00 63 1004.9
20200227104550 5 130 0.0 3.2 0.00 0.20 0.00 63 1005.3
20200227103115 4 29 0.0 6.4 0.00 0.20 0.00 65 1005.8
20200227101647 5 57 0.0 4.8 0.00 0.20 0.00 63 1006.2
20200227100140 5 321 0.0 3.2 0.00 0.20 0.00 63 1006.7
20200227094552 4 310 0.0 4.8 0.00 0.20 0.00 65 1007.0
20200227093042 4 303 0.0 4.8 0.00 0.20 0.00 66 1007.5
20200227091542 3 271 0.0 4.8 0.00 0.20 0.00 67 1007.7
20200227090030 3 300 0.0 11.3 0.00 0.20 0.00 67 1008.1
20200227084619 3 298 0.0 6.4 0.00 0.20 0.00 68 1008.4
20200227083022 3 298 0.0 3.2 0.00 0.20 0.00 69 1008.8
20200227081517 2 290 0.0 4.8 0.00 0.20 0.00 70 1008.9
20200227080010 2 290 0.0 3.2 0.00 0.20 0.00 71 1009.2
20200227074508 2 290 0.0 3.2 0.00 0.20 0.00 72 1009.5
20200227073003 2 290 0.0 3.2 0.00 0.20 0.00 73 1009.7
20200227071627 2 290 0.0 6.4 0.00 0.20 0.00 73 1009.8
20200227070216 2 277 1.6 8.0 0.00 0.20 0.00 74 1010.1
20200227064654 2 5 0.0 1.6 0.00 0.20 0.00 76 1010.1
20200227063126 1 323 0.0 1.6 0.00 0.20 0.00 80 1010.1
20200227061620 1 323 0.0 0.0 0.00 0.20 0.00 82 1010.2
20200227060058 1 323 0.0 0.0 0.00 0.20 0.00 81 1010.2
20200227054612 1 323 0.0 3.2 0.00 0.20 0.00 79 1010.6
20200227053121 1 266 0.0 3.2 0.00 0.20 0.00 78 1010.7
20200227051632 1 266 0.0 4.8 0.00 0.20 0.00 79 1010.7
20200227050119 1 271 0.0 12.9 0.00 0.20 0.00 79 1010.7
20200227044638 1 287 0.0 8.0 0.00 0.20 0.00 78 1010.8
20200227043047 1 263 3.2 9.7 0.00 0.20 0.00 78 1010.8
20200227041613 1 299 1.6 12.9 0.00 0.20 0.00 79 1010.8
20200227040147 1 350 1.6 9.7 0.00 0.20 0.00 80 1010.9
20200227034616 1 289 1.6 8.0 0.00 0.20 0.00 81 1011.0
20200227033057 1 241 0.0 8.0 0.00 0.20 0.00 81 1011.0
20200227031600 1 300 0.0 11.3 0.00 0.20 0.00 81 1010.8
20200227030109 1 347 0.0 8.0 0.00 0.20 0.00 81 1010.8
20200227024618 1 285 0.0 11.3 0.00 0.30 0.00 81 1010.8
20200227023210 1 300 1.6 9.7 0.00 0.30 0.00 82 1010.9
20200227021619 1 276 0.0 8.0 0.00 0.30 0.00 81 1011.1
20200227020117 1 267 0.0 12.9 0.00 0.30 0.00 81 1011.2
20200227014553 1 279 1.6 9.7 0.00 0.46 0.00 81 1011.0
20200227013118 1 300 1.6 12.9 0.00 0.46 0.00 81 1011.1
20200227011544 1 265 0.0 8.0 0.00 0.46 0.00 81 1011.2
20200227010036 1 273 0.0 9.7 0.00 0.46 0.00 81 1011.1
20200227004524 1 291 1.6 11.3 0.00 0.64 0.00 82 1011.1
20200227003030 1 273 0.0 1.6 0.00 0.64 0.00 82 1011.1
20200227001525 1 308 0.0 3.2 0.00 0.64 0.00 82 1011.0
20200227000054 1 263 0.0 6.4 0.00 0.64 0.00 82 1011.0
20200226234534 1 277 0.0 12.9 0.00 0.64 0.00 82 1010.9
20200226233024 1 279 0.0 8.0 0.00 0.64 0.00 83 1010.8
20200226231618 1 267 0.0 3.2 0.00 0.64 0.00 83 1010.8
20200226230029 1 267 0.0 4.8 0.00 0.64 0.00 82 1010.7
20200226224532 1 296 0.0 4.8 0.00 0.64 0.64 82 1010.7
20200226223031 1 196 0.0 6.4 0.00 0.64 0.64 83 1010.6
20200226221516 1 271 0.0 4.8 0.00 0.64 0.64 83 1010.6
20200226220039 1 317 0.0 11.3 0.00 0.64 0.64 83 1010.4
20200226214516 1 289 0.0 6.4 0.00 0.64 0.64 84 1010.4
20200226213010 1 308 0.0 8.0 0.00 0.64 0.64 84 1010.4
20200226211519 1 292 1.6 6.4 0.00 0.64 0.64 84 1010.3
20200226210009 1 296 0.0 9.7 0.00 0.64 0.64 85 1010.2
20200226204504 1 277 0.0 6.4 0.00 0.64 0.64 85 1010.0
20200226203033 1 298 0.0 6.4 0.00 0.64 0.64 86 1009.8
20200226201506 1 267 0.0 8.0 0.00 0.64 0.64 87 1009.7
20200226200222 1 275 0.0 4.8 0.00 0.64 0.64 87 1009.4
20200226194618 1 290 0.0 1.6 0.05 0.64 0.64 88 1009.2
20200226193249 1 311 0.0 6.4 0.15 0.64 0.64 88 1009.1
20200226191940 0 320 0.0 6.4 0.15 0.64 0.64 88 1008.9
20200226190124 0 292 0.0 4.8 0.20 0.64 0.64 88 1008.9
20200226184727 0 259 0.0 1.6 0.15 0.81 0.61 87 1008.8
20200226183131 0 258 0.0 1.6 0.05 0.71 0.51 86 1008.5
20200226181550 1 272 0.0 8.0 0.05 0.71 0.48 84 1008.6
20200226180124 1 271 0.0 9.7 0.00 0.66 0.43 81 1007.9
20200226174552 1 254 1.6 9.7 0.00 0.69 0.43 81 1007.5
20200226173135 1 268 1.6 9.7 0.00 0.69 0.43 80 1007.3
20200226171559 1 302 0.0 6.4 0.00 0.69 0.43 81 1007.1
20200226170122 1 279 0.0 14.5 0.00 0.69 0.43 80 1006.7
20200226164606 2 248 1.6 8.0 0.00 0.69 0.43 77 1006.4
20200226163038 2 276 3.2 12.9 0.00 0.69 0.43 72 1006.2
20200226161624 3 308 0.0 12.9 0.00 0.69 0.43 65 1005.6
20200226160121 3 284 0.0 12.9 0.00 0.69 0.43 64 1005.2
20200226154534 4 279 0.0 4.8 0.00 0.69 0.43 64 1005.0
20200226153029 4 300 1.6 8.0 0.00 0.69 0.43 64 1004.9
20200226151547 3 283 4.8 16.1 0.00 0.69 0.43 62 1004.6
20200226150050 4 286 3.2 16.1 0.00 0.69 0.43 62 1004.4
20200226144532 4 298 1.6 16.1 0.00 0.69 0.43 63 1004.2
20200226143046 4 277 4.8 12.9 0.00 0.69 0.43 65 1004.1
20200226141534 4 284 3.2 14.5 0.00 0.69 0.43 67 1004.1
20200226140031 4 291 6.4 16.1 0.00 0.69 0.43 66 1004.0
20200226134558 4 308 3.2 12.9 0.00 0.71 0.43 67 1003.8
20200226133045 3 299 1.6 11.3 0.00 0.71 0.43 68 1003.7
20200226131537 3 296 1.6 14.5 0.00 0.71 0.43 67 1003.5
20200226130026 3 286 3.2 6.4 0.00 0.71 0.43 69 1003.3
20200226124525 3 271 1.6 14.5 0.00 0.76 0.43 69 1003.3
20200226123046 2 275 1.6 19.3 0.00 0.76 0.43 71 1003.2